SCP
0 0 0 0 0 0 0 0 0 0 0 0 0 0 0 0 0 0 0 0 0 0 0 -0 0 -0 -0 -0 0 0 -0 0 0 0 -0 0 0 0 0 0 0 0 0 0 0
0 0 0 0 0 0 0 0 0 0 0 0 0 0 0 0 0 0 0 -0 0 0 0 -0 0 0 -0 -0 0 0 -0 -0 -0 -0 -0 0 0 0 0 0 0 0 0 0 0
0 0 0 0 0 0 0 0 0 0 0 0 0 0 0 0 0 0 -0 -0 -0 -0 -0 -0 -0 -0 0 -0 -0 0 -0 0 -0 0 0 0 0 0 0 0 0 0 0 0 0
0 0 0 0 0 0 0 0 0 0 0 0 0 0 0 0 -0 0 -0 -0 0 -0 -0 0 0 -0 -0 -0 0 -0 0 0 0 0 0 0 0 0 0 0 0 0 0 0 0
0 0 0 0 0 0 0 0 0 0 0 0 0 0 0 0 0 -0 -0 -0 0 0 -0 0 -0 -0 -0 0 0 0 0 0 0 0 0 0 0 0 0 0 0 0 0 0 0
0 0 0 0 0 0 0 0 0 0 0 0 0 0 0 -0 0 -0 -0 -0 -0 -0 -0 -0 0 -0 0 0 0 0 0 0 0 0 0 0 0 0 0 0 0 0 0 0 0
0 0 0 0 0 0 0 0 0 0 0 0 0 0 -0 0 0 -0 -0 -0 0 0 0 0 0 0 0 0 0 0 0 0 0 0 0 0 0 0 0 0 0 0 0 0 0
0 0 0 0 0 0 -0 0 0 0 0 0 0 0 0 0 0 -0 -0 -0 -0 -0 0 0 0 0 0 0 0 0 0 0 0 0 0 0 0 0 0 0 0 0 0 0 0
0 0 0 0 0 -0 -0 0 0 0 0 0 0 0 0 -0 -0 -0 -0 -0 -0 0 0 0 0 0 0 0 0 0 0 0 0 0 0 0 0 0 0 0 0 0 0 0 0
0 0 0 0 -0 -0 -0 0 0 0 0 0 0 0 0 0 0 0 -0 -0 -0 0 0 0 0 0 0 0 0 0 0 0 0 0 0 0 0 0 0 0 0 0 0 0 0
0 0 0 0 -0 -0 0 0 0 0 -0 0 0 0 0 -0 0 -0 -0 -0 -0 -0 0 0 0 0 0 0 0 0 0 0 0 0 0 0 0 0 0 0 0 0 0 0 0
0 0 0 0 -0 -0 0 0 0 0 0 0 0 0 0 0 -0 -0 -0 0 0 0 0 0 0 0 0 0 0 0 0 0 0 0 0 0 0 0 0 0 0 0 0 0 0
0 0 0 0 -0 0 0 0 0 0 0 0 0 0 0 -0 -0 -0 -0 0 0 0 0 0 0 0 0 0 0 0 0 0 0 0 0 0 0 0 0 0 0 0 0 0 0
0 0 0 0 0 0 0 0 0 0 -0 0 0 0 0 0 -0 0 0 0 0 0 0 0 0 0 0 0 0 0 0 0 0 0 0 0 0 0 0 0 0 0 0 0 0
0 0 0 0 0 0 0 0 0 0 0 0 0 0 0 -0 0 0 0 0 0 0 0 0 0 0 0 0 0 0 0 0 0 0 0 0 0 0 0 0 0 0 0 0 0
0 0 0 0 0 0 0 0 0 0 0 0 0 0 0 -0 0 0 -0 -0 0 0 0 0 0 0 0 0 0 0 0 0 0 0 0 0 0 0 0 0 0 0 0 0 0
0 0 0 0 0 0 0 0 0 0 0 0 0 0 0 0 0 -0 -0 -0 -0 0 0 0 0 0 0 0 0 0 0 0 0 0 0 0 0 0 0 0 0 0 0 0 0
0 0 0 0 0 0 0 0 0 0 0 0 0 0 0 0 0 0 0 -0 -0 0 0 0 0 0 0 0 0 0 0 0 0 0 0 0 0 0 0 0 0 0 0 0 0
0 0 0 0 0 0 0 0 0 0 0 0 0 0 0 0 0 0 0 0 0 0 0 0 0 0 0 0 0 0 0 0 0 0 0 0 0 0 0 0 0 0 0 0 0
0 0 0 0 0 0 0 0 0 0 0 0 0 0 0 0 0 0 0 0 0 0 0 0 -0 0 0 0 0 0 0 0 0 0 0 0 0 0 0 0 0 0 0 0 0
0 0 0 0 0 0 0 0 0 0 0 0 0 0 0 0 0 0 0 0 0 -0 0 0 0 0 0 0 0 0 0 0 0 0 0 0 0 0 0 0 0 0 0 0 0
0 0 0 0 0 0 0 0 0 0 0 0 0 0 0 0 0 0 0 -0 0 0 -0 -0 0 0 0 0 0 0 0 0 0 0 0 0 0 0 0 0 0 0 0 0 0
0 0 0 0 0 0 0 0 0 0 0 0 0 0 0 0 0 0 0 -0 -0 -0 0 -0 0 -0 0 0 0 0 0 0 0 0 0 0 0 0 0 0 0 0 0 0 0
0 0 0 0 0 0 0 0 0 0 0 0 0 0 0 0 0 0 0 -0 0 0 -0 0 0 0 0 0 0 0 0 0 0 0 0 0 0 0 0 0 0 0 0 0 0
0 0 0 0 0 0 0 0 0 0 0 0 0 0 0 0 0 0 0 0 0 0 0 0 0 0 0 0 0 0 0 0 0 0 0 0 0 0 0 0 0 0 0 0 0
0 0 0 0 0 0 0 0 0 0 0 0 0 0 0 0 0 0 0 0 0 0 0 0 0 0 0 0 0 0 0 0 0 0 0 0 0 0 0 0 0 0 0 0 0
0 0 0 0 0 0 0 0 0 0 0 0 0 0 0 0 0 0 0 0 0 0 0 0 0 0 0 0 0 0 0 0 0 0 0 0 0 0 0 0 0 0 0 0 0
Wind_Speed_500mb
23 22 24 24 26 29 32 31 29 28 28 30 28 28 27 27 30 23 34 30 23 20 23 28 34 32 35 41 23 14 10 5 10 10 11 19 9 8 8 16 9 7 18 33 22
21 22 23 25 26 29 29 30 31 25 26 24 19 23 24 21 25 33 26 18 13 13 11 16 12 14 24 17 16 17 9 4 2 11 11 18 10 19 11 22 19 36 37 26 18
18 22 24 26 29 30 28 31 27 24 19 13 15 12 11 11 15 30 20 12 11 13 9 12 7 13 22 20 19 12 9 9 6 18 37 21 17 10 30 4 21 41 34 24 14
20 25 29 30 26 27 31 29 24 17 9 7 5 4 4 8 7 24 22 22 13 11 13 11 4 11 15 12 10 15 15 10 18 20 18 19 22 18 2 3 20 29 25 18 10
22 28 31 32 33 29 26 25 18 10 10 11 6 5 11 27 24 22 20 19 15 9 11 11 20 17 13 14 14 15 10 18 23 19 20 23 13 9 5 24 32 29 21 14 7
26 31 33 36 29 22 21 19 14 16 18 16 18 22 23 39 26 20 19 11 20 15 13 8 18 38 31 14 13 16 32 27 14 14 14 12 9 2 20 33 32 26 21 15 8
30 33 34 29 20 22 22 23 20 21 19 21 26 22 37 23 24 18 17 24 24 16 15 18 8 2 19 17 25 28 11 7 6 11 6 15 4 10 31 37 33 29 24 19 13
31 32 29 20 25 23 26 18 21 16 14 14 15 9 18 20 21 14 22 20 25 34 36 37 34 40 17 39 10 9 8 4 7 12 5 2 12 9 39 45 39 34 30 24 20
31 29 28 28 24 21 19 14 12 12 8 8 11 14 11 14 15 16 15 25 24 22 20 17 22 23 12 9 7 11 1 1 3 19 9 3 11 8 44 46 42 38 35 31 26
31 30 30 25 21 20 15 14 11 5 8 7 12 17 10 10 13 16 6 6 3 7 5 8 13 9 8 8 4 4 1 5 8 10 8 7 22 11 46 51 50 43 41 39 33
31 29 25 21 22 19 16 12 0 6 38 21 15 15 12 8 17 13 1 1 1 10 8 13 14 5 0 1 2 5 4 6 5 9 8 14 17 16 47 53 49 48 50 47 36
29 26 24 18 16 8 11 4 7 12 18 22 18 17 20 8 4 18 8 3 5 5 8 12 5 3 3 7 2 3 3 7 3 5 12 7 21 12 33 43 60 58 56 49 38
27 25 21 17 6 2 10 15 15 6 7 10 15 12 10 13 11 21 15 7 11 9 9 9 1 5 4 7 5 1 5 4 6 4 4 12 14 4 6 20 35 50 50 43 39
25 25 20 11 3 22 24 15 8 4 9 11 7 8 9 5 9 19 15 6 10 5 4 6 7 3 4 4 3 3 2 1 4 5 5 7 10 7 7 13 23 42 38 38 35
24 22 18 5 5 18 11 7 8 1 5 1 5 6 12 9 2 14 17 7 6 4 5 3 3 6 6 2 3 6 4 3 2 5 6 3 4 12 3 13 22 39 40 33 34
24 17 12 6 8 12 6 11 3 11 6 1 3 6 6 12 6 9 5 11 8 6 7 3 1 3 2 3 2 3 4 9 7 5 5 1 5 12 8 11 6 11 45 40 36
22 14 7 8 7 6 2 6 9 7 5 2 1 6 5 7 10 12 10 13 6 4 8 7 2 2 3 2 1 8 9 8 11 8 9 3 1 18 8 9 7 15 44 42 35
20 16 7 8 3 5 2 9 2 5 8 1 3 5 4 3 5 10 6 6 9 7 4 3 9 2 4 4 3 6 5 8 7 7 11 3 11 11 2 2 5 12 36 39 34
18 17 14 9 5 3 3 5 11 10 7 11 4 4 3 1 4 8 5 4 1 4 3 2 7 0 4 4 3 2 5 1 5 3 3 7 14 12 2 3 6 20 36 37 31
17 14 19 15 10 5 7 8 5 5 4 3 10 5 8 3 2 4 2 2 3 4 3 2 8 1 1 5 10 4 10 4 6 6 11 10 12 12 10 12 14 25 38 36 29
15 7 10 18 10 6 5 11 7 7 6 7 10 6 4 6 5 4 4 1 2 3 4 4 5 5 3 6 9 3 1 9 6 7 6 8 13 13 11 10 20 42 46 41 33
10 4 7 17 5 3 6 8 5 8 5 3 5 4 9 9 6 5 8 3 4 5 4 2 6 8 9 2 3 2 5 8 8 7 3 4 15 3 4 12 18 37 46 38 31
6 8 9 20 6 4 3 2 6 6 5 6 5 2 2 8 5 6 6 5 5 5 7 7 1 8 10 4 6 4 7 7 8 5 12 7 14 6 3 4 12 32 43 40 33
6 2 9 16 8 12 9 8 6 7 6 5 6 5 5 4 4 11 7 5 4 7 9 7 3 10 11 10 4 7 9 10 9 6 7 14 21 26 14 15 21 34 41 40 32
7 7 6 5 8 9 11 12 10 10 6 10 2 8 10 7 5 7 5 6 3 8 6 7 6 7 13 17 9 12 16 17 19 12 14 9 15 41 15 20 42 43 43 41 35
7 5 4 5 4 14 9 14 18 7 13 9 8 10 9 9 10 16 12 9 8 5 7 1 3 6 12 3 7 13 17 20 17 8 21 35 41 16 10 10 26 48 50 46 38
10 12 6 4 5 7 10 12 18 23 9 5 12 12 8 5 3 12 9 13 16 14 10 7 5 6 11 8 16 13 13 15 10 11 13 13 17 10 8 20 34 50 53 47 37
Wind_Direction_500mb
123 126 121 123 125 124 126 125 121 122 116 111 104 100 100 90 77 95 59 29 46 78 97 102 109 90 75 69 62 75 67 106 161 152 148 148 136 134 130 142 113 141 146 148 148
125 124 126 127 128 129 128 127 126 123 115 109 106 113 109 100 83 74 46 43 54 60 93 124 104 91 69 43 37 59 81 119 68 142 148 152 146 140 133 119 98 120 136 144 148
127 129 127 130 130 125 127 128 127 121 111 91 104 122 123 97 78 17 35 45 38 35 55 40 69 78 67 44 22 40 116 145 25 139 140 136 130 143 142 197 179 162 152 149 144
134 135 134 134 131 126 130 126 129 119 91 85 75 93 126 33 73 15 30 38 38 27 1 338 289 72 68 52 30 92 61 119 132 137 127 139 137 140 132 234 170 154 147 150 156
138 139 135 129 128 129 127 129 128 96 75 69 70 109 111 83 34 37 38 35 32 16 358 30 89 95 94 104 76 80 110 91 128 129 120 138 141 168 190 143 150 154 161 164 174
139 138 135 133 129 125 126 129 118 98 92 83 88 103 104 80 51 35 43 35 49 12 33 70 102 107 89 60 54 104 107 114 120 127 138 132 147 162 164 160 164 171 176 183 204
141 140 140 137 129 124 123 118 108 103 98 95 99 103 84 74 59 45 50 59 47 40 92 95 86 84 99 100 107 112 83 92 131 151 151 131 220 231 185 178 179 186 193 199 218
143 141 141 140 130 129 130 112 103 94 112 99 83 106 80 78 72 88 54 63 63 73 82 88 96 84 80 115 82 70 77 80 184 171 151 62 271 197 183 182 191 198 202 208 226
147 146 141 134 129 135 137 123 93 75 109 94 85 99 83 81 82 77 71 79 80 68 66 62 76 85 93 83 48 14 151 245 302 197 147 159 265 186 184 193 201 206 211 216 226
149 146 142 132 131 135 140 141 87 55 82 68 66 95 72 42 50 41 80 49 6 338 355 40 62 76 44 59 228 215 236 253 257 210 165 190 261 191 196 203 211 214 216 221 228
151 150 147 139 144 136 149 143 201 73 65 64 57 80 63 58 51 24 353 221 295 37 34 27 65 79 201 219 153 130 175 251 227 178 161 226 261 231 208 211 219 221 222 223 228
154 156 153 147 167 153 176 206 101 122 68 58 65 67 51 49 54 33 22 358 43 50 348 24 83 223 133 25 140 174 256 279 274 134 190 265 261 236 195 216 220 224 224 223 222
160 160 157 142 151 265 166 122 105 84 88 37 47 44 40 43 48 14 25 32 69 49 10 122 187 310 170 46 59 199 200 247 252 342 224 327 293 279 219 220 228 234 236 227 226
164 165 165 144 113 133 115 94 34 15 73 314 3 25 4 61 59 23 19 37 40 140 87 81 328 67 93 82 108 337 275 283 308 55 281 15 286 288 272 254 237 232 222 220 219
169 171 178 185 143 153 127 46 357 357 17 319 359 34 36 70 8 8 25 63 84 98 97 267 351 33 65 334 159 242 353 302 358 121 27 352 76 263 352 266 244 227 211 208 206
168 172 190 208 169 167 147 6 94 41 264 341 359 3 49 34 33 349 61 72 86 95 46 173 100 86 222 304 195 330 93 51 60 97 4 257 137 280 212 217 310 199 206 199 199
175 175 191 198 177 192 223 335 39 132 14 266 28 54 71 9 16 34 34 19 51 15 354 341 263 10 36 27 184 58 42 342 351 8 238 153 74 250 253 237 232 220 196 192 197
189 198 193 198 217 202 232 47 182 202 204 74 94 78 87 14 21 18 67 43 44 60 70 47 319 68 18 87 182 43 117 140 285 279 287 102 235 256 230 10 278 226 190 186 197
202 212 227 231 263 241 189 69 217 201 170 152 81 100 350 36 117 79 46 162 144 63 110 18 282 121 68 120 77 73 46 162 115 56 5 248 291 279 182 121 139 155 176 189 195
214 228 241 244 252 224 88 230 218 206 153 143 173 166 193 244 140 93 212 131 123 76 117 153 320 257 50 113 50 93 156 22 20 325 298 282 287 243 269 231 204 196 195 196 197
217 235 245 226 221 193 181 223 214 206 184 158 196 155 187 162 157 175 169 184 152 94 98 119 108 294 16 193 173 70 36 55 122 134 205 299 266 217 215 206 209 211 206 201 200
208 247 236 192 167 66 173 192 181 175 185 128 119 122 167 165 137 172 209 182 148 123 98 82 147 274 244 358 63 104 185 148 126 245 219 147 274 86 261 265 234 216 205 200 202
242 237 213 191 173 232 238 215 184 170 194 158 153 182 162 157 155 181 166 163 147 117 139 165 353 334 339 33 12 204 188 118 103 78 212 153 266 163 217 232 227 202 193 193 198
268 301 191 201 216 147 160 205 195 191 168 147 137 130 121 134 18 180 164 181 148 117 124 134 159 191 214 228 169 234 193 180 151 157 202 231 282 289 237 224 214 200 194 192 197
246 261 213 230 232 173 166 157 149 180 201 178 141 212 173 155 155 187 137 146 139 146 117 127 227 209 254 257 224 237 221 184 195 194 194 269 219 280 292 222 229 206 191 191 198
279 292 291 282 193 137 173 216 178 177 153 223 198 167 188 175 194 199 152 195 183 166 139 62 248 7 290 174 197 267 233 215 225 233 258 266 277 290 264 241 198 198 194 199 205
259 279 268 273 177 139 216 194 204 155 203 181 180 130 168 195 138 102 129 120 152 148 159 132 131 67 269 338 307 295 226 185 191 202 182 222 254 167 224 224 210 200 201 206 210
Wind_Speed_850mb
23 22 24 24 26 29 32 31 29 28 28 30 28 28 27 27 30 23 34 30 23 20 23 28 34 32 35 41 23 14 10 5 10 10 11 19 9 8 8 16 9 7 18 33 22
21 22 23 25 26 29 29 30 31 25 26 24 19 23 24 21 25 33 26 18 13 13 11 16 12 14 24 17 16 17 9 4 2 11 11 18 10 19 11 22 19 36 37 26 18
18 22 24 26 29 30 28 31 27 24 19 13 15 12 11 11 15 30 20 12 11 13 9 12 7 13 22 20 19 12 9 9 6 18 37 21 17 10 30 4 21 41 34 24 14
20 25 29 30 26 27 31 29 24 17 9 7 5 4 4 8 7 24 22 22 13 11 13 11 4 11 15 12 10 15 15 10 18 20 18 19 22 18 2 3 20 29 25 18 10
22 28 31 32 33 29 26 25 18 10 10 11 6 5 11 27 24 22 20 19 15 9 11 11 20 17 13 14 14 15 10 18 23 19 20 23 13 9 5 24 32 29 21 14 7
26 31 33 36 29 22 21 19 14 16 18 16 18 22 23 39 26 20 19 11 20 15 13 8 18 38 31 14 13 16 32 27 14 14 14 12 9 2 20 33 32 26 21 15 8
30 33 34 29 20 22 22 23 20 21 19 21 26 22 37 23 24 18 17 24 24 16 15 18 8 2 19 17 25 28 11 7 6 11 6 15 4 10 31 37 33 29 24 19 13
31 32 29 20 25 23 26 18 21 16 14 14 15 9 18 20 21 14 22 20 25 34 36 37 34 40 17 39 10 9 8 4 7 12 5 2 12 9 39 45 39 34 30 24 20
31 29 28 28 24 21 19 14 12 12 8 8 11 14 11 14 15 16 15 25 24 22 20 17 22 23 12 9 7 11 1 1 3 19 9 3 11 8 44 46 42 38 35 31 26
31 30 30 25 21 20 15 14 11 5 8 7 12 17 10 10 13 16 6 6 3 7 5 8 13 9 8 8 4 4 1 5 8 10 8 7 22 11 46 51 50 43 41 39 33
31 29 25 21 22 19 16 12 0 6 38 21 15 15 12 8 17 13 1 1 1 10 8 13 14 5 0 1 2 5 4 6 5 9 8 14 17 16 47 53 49 48 50 47 36
29 26 24 18 16 8 11 4 7 12 18 22 18 17 20 8 4 18 8 3 5 5 8 12 5 3 3 7 2 3 3 7 3 5 12 7 21 12 33 43 60 58 56 49 38
27 25 21 17 6 2 10 15 15 6 7 10 15 12 10 13 11 21 15 7 11 9 9 9 1 5 4 7 5 1 5 4 6 4 4 12 14 4 6 20 35 50 50 43 39
25 25 20 11 3 22 24 15 8 4 9 11 7 8 9 5 9 19 15 6 10 5 4 6 7 3 4 4 3 3 2 1 4 5 5 7 10 7 7 13 23 42 38 38 35
24 22 18 5 5 18 11 7 8 1 5 1 5 6 12 9 2 14 17 7 6 4 5 3 3 6 6 2 3 6 4 3 2 5 6 3 4 12 3 13 22 39 40 33 34
24 17 12 6 8 12 6 11 3 11 6 1 3 6 6 12 6 9 5 11 8 6 7 3 1 3 2 3 2 3 4 9 7 5 5 1 5 12 8 11 6 11 45 40 36
22 14 7 8 7 6 2 6 9 7 5 2 1 6 5 7 10 12 10 13 6 4 8 7 2 2 3 2 1 8 9 8 11 8 9 3 1 18 8 9 7 15 44 42 35
20 16 7 8 3 5 2 9 2 5 8 1 3 5 4 3 5 10 6 6 9 7 4 3 9 2 4 4 3 6 5 8 7 7 11 3 11 11 2 2 5 12 36 39 34
18 17 14 9 5 3 3 5 11 10 7 11 4 4 3 1 4 8 5 4 1 4 3 2 7 0 4 4 3 2 5 1 5 3 3 7 14 12 2 3 6 20 36 37 31
17 14 19 15 10 5 7 8 5 5 4 3 10 5 8 3 2 4 2 2 3 4 3 2 8 1 1 5 10 4 10 4 6 6 11 10 12 12 10 12 14 25 38 36 29
15 7 10 18 10 6 5 11 7 7 6 7 10 6 4 6 5 4 4 1 2 3 4 4 5 5 3 6 9 3 1 9 6 7 6 8 13 13 11 10 20 42 46 41 33
10 4 7 17 5 3 6 8 5 8 5 3 5 4 9 9 6 5 8 3 4 5 4 2 6 8 9 2 3 2 5 8 8 7 3 4 15 3 4 12 18 37 46 38 31
6 8 9 20 6 4 3 2 6 6 5 6 5 2 2 8 5 6 6 5 5 5 7 7 1 8 10 4 6 4 7 7 8 5 12 7 14 6 3 4 12 32 43 40 33
6 2 9 16 8 12 9 8 6 7 6 5 6 5 5 4 4 11 7 5 4 7 9 7 3 10 11 10 4 7 9 10 9 6 7 14 21 26 14 15 21 34 41 40 32
7 7 6 5 8 9 11 12 10 10 6 10 2 8 10 7 5 7 5 6 3 8 6 7 6 7 13 17 9 12 16 17 19 12 14 9 15 41 15 20 42 43 43 41 35
7 5 4 5 4 14 9 14 18 7 13 9 8 10 9 9 10 16 12 9 8 5 7 1 3 6 12 3 7 13 17 20 17 8 21 35 41 16 10 10 26 48 50 46 38
10 12 6 4 5 7 10 12 18 23 9 5 12 12 8 5 3 12 9 13 16 14 10 7 5 6 11 8 16 13 13 15 10 11 13 13 17 10 8 20 34 50 53 47 37
Wind_Direction_850mb
123 126 121 123 125 124 126 125 121 122 116 111 104 100 100 90 77 95 59 29 46 78 97 102 109 90 75 69 62 75 67 106 161 152 148 148 136 134 130 142 113 141 146 148 148
125 124 126 127 128 129 128 127 126 123 115 109 106 113 109 100 83 74 46 43 54 60 93 124 104 91 69 43 37 59 81 119 68 142 148 152 146 140 133 119 98 120 136 144 148
127 129 127 130 130 125 127 128 127 121 111 91 104 122 123 97 78 17 35 45 38 35 55 40 69 78 67 44 22 40 116 145 25 139 140 136 130 143 142 197 179 162 152 149 144
134 135 134 134 131 126 130 126 129 119 91 85 75 93 126 33 73 15 30 38 38 27 1 338 289 72 68 52 30 92 61 119 132 137 127 139 137 140 132 234 170 154 147 150 156
138 139 135 129 128 129 127 129 128 96 75 69 70 109 111 83 34 37 38 35 32 16 358 30 89 95 94 104 76 80 110 91 128 129 120 138 141 168 190 143 150 154 161 164 174
139 138 135 133 129 125 126 129 118 98 92 83 88 103 104 80 51 35 43 35 49 12 33 70 102 107 89 60 54 104 107 114 120 127 138 132 147 162 164 160 164 171 176 183 204
141 140 140 137 129 124 123 118 108 103 98 95 99 103 84 74 59 45 50 59 47 40 92 95 86 84 99 100 107 112 83 92 131 151 151 131 220 231 185 178 179 186 193 199 218
143 141 141 140 130 129 130 112 103 94 112 99 83 106 80 78 72 88 54 63 63 73 82 88 96 84 80 115 82 70 77 80 184 171 151 62 271 197 183 182 191 198 202 208 226
147 146 141 134 129 135 137 123 93 75 109 94 85 99 83 81 82 77 71 79 80 68 66 62 76 85 93 83 48 14 151 245 302 197 147 159 265 186 184 193 201 206 211 216 226
149 146 142 132 131 135 140 141 87 55 82 68 66 95 72 42 50 41 80 49 6 338 355 40 62 76 44 59 228 215 236 253 257 210 165 190 261 191 196 203 211 214 216 221 228
151 150 147 139 144 136 149 143 201 73 65 64 57 80 63 58 51 24 353 221 295 37 34 27 65 79 201 219 153 130 175 251 227 178 161 226 261 231 208 211 219 221 222 223 228
154 156 153 147 167 153 176 206 101 122 68 58 65 67 51 49 54 33 22 358 43 50 348 24 83 223 133 25 140 174 256 279 274 134 190 265 261 236 195 216 220 224 224 223 222
160 160 157 142 151 265 166 122 105 84 88 37 47 44 40 43 48 14 25 32 69 49 10 122 187 310 170 46 59 199 200 247 252 342 224 327 293 279 219 220 228 234 236 227 226
164 165 165 144 113 133 115 94 34 15 73 314 3 25 4 61 59 23 19 37 40 140 87 81 328 67 93 82 108 337 275 283 308 55 281 15 286 288 272 254 237 232 222 220 219
169 171 178 185 143 153 127 46 357 357 17 319 359 34 36 70 8 8 25 63 84 98 97 267 351 33 65 334 159 242 353 302 358 121 27 352 76 263 352 266 244 227 211 208 206
168 172 190 208 169 167 147 6 94 41 264 341 359 3 49 34 33 349 61 72 86 95 46 173 100 86 222 304 195 330 93 51 60 97 4 257 137 280 212 217 310 199 206 199 199
175 175 191 198 177 192 223 335 39 132 14 266 28 54 71 9 16 34 34 19 51 15 354 341 263 10 36 27 184 58 42 342 351 8 238 153 74 250 253 237 232 220 196 192 197
189 198 193 198 217 202 232 47 182 202 204 74 94 78 87 14 21 18 67 43 44 60 70 47 319 68 18 87 182 43 117 140 285 279 287 102 235 256 230 10 278 226 190 186 197
202 212 227 231 263 241 189 69 217 201 170 152 81 100 350 36 117 79 46 162 144 63 110 18 282 121 68 120 77 73 46 162 115 56 5 248 291 279 182 121 139 155 176 189 195
214 228 241 244 252 224 88 230 218 206 153 143 173 166 193 244 140 93 212 131 123 76 117 153 320 257 50 113 50 93 156 22 20 325 298 282 287 243 269 231 204 196 195 196 197
217 235 245 226 221 193 181 223 214 206 184 158 196 155 187 162 157 175 169 184 152 94 98 119 108 294 16 193 173 70 36 55 122 134 205 299 266 217 215 206 209 211 206 201 200
208 247 236 192 167 66 173 192 181 175 185 128 119 122 167 165 137 172 209 182 148 123 98 82 147 274 244 358 63 104 185 148 126 245 219 147 274 86 261 265 234 216 205 200 202
242 237 213 191 173 232 238 215 184 170 194 158 153 182 162 157 155 181 166 163 147 117 139 165 353 334 339 33 12 204 188 118 103 78 212 153 266 163 217 232 227 202 193 193 198
268 301 191 201 216 147 160 205 195 191 168 147 137 130 121 134 18 180 164 181 148 117 124 134 159 191 214 228 169 234 193 180 151 157 202 231 282 289 237 224 214 200 194 192 197
246 261 213 230 232 173 166 157 149 180 201 178 141 212 173 155 155 187 137 146 139 146 117 127 227 209 254 257 224 237 221 184 195 194 194 269 219 280 292 222 229 206 191 191 198
279 292 291 282 193 137 173 216 178 177 153 223 198 167 188 175 194 199 152 195 183 166 139 62 248 7 290 174 197 267 233 215 225 233 258 266 277 290 264 241 198 198 194 199 205
259 279 268 273 177 139 216 194 204 155 203 181 180 130 168 195 138 102 129 120 152 148 159 132 131 67 269 338 307 295 226 185 191 202 182 222 254 167 224 224 210 200 201 206 210